Terminal Aerodrome Forecast
Issued by NWS Charleston, WV

Current Version | Previous Version | Graphics & Text | Print | Product List | Glossary On
Versions: 1 2 3 4 5 6 7 8 9 10 11 12 13 14 15 16 17 18 19 20 21 22
875
FTUS41 KRLX 241723
TAFBKW
TAF
KBKW 241723Z 2418/2518 23006KT P6SM BKN045
     FM250800 18004KT P6SM SCT060
     FM251500 24012G18KT P6SM BKN040=

USA.gov is the U.S. government's official web portal to all federal, state and local government web resources and services.